COSMOS 1275 DEB, 12653

Orbit data source: Space-Track

COSMOS 1275 DEB, 12653 is space debris in LEO originally from a launch on Thu, 04 Jun 1981 UTC launched from the Plesetsk Missile And Space Complex (PKMTR). Debris objects in space refer to the collection of defunct objects orbiting the Earth. Examples of debris include non-operational satellites, rocket bodies, and fragments generated from explosions, collisions, or faulty payload assembly.

Loading next visibility...
Identifier
12653, 1981-053H
Orbit
LEO
Country
Flag of CISCIS
Related business
Manufacturer
Unknown
Mission
Spacecraft
Bus & Motor
Unknown
Mass
Unknown
Launch date (UTC)
1981-06-04 (45 years ago)
Launch vehicle
Unknown
Launch site
Plesetsk Missile And Space Complex (PKMTR)
Object type
Payload
Rocket body
Debris
Shape & HBR
Unknown shape, 0.6 m
Radar Cross Section
Medium (>0.1 m² and <1 m²)

Expand to show TLE details & history
Last TLE update: 8 hours ago

TLE from 8 hours ago
0 COSMOS 1275 DEB
1 12653U 81053H   26071.99576480  .00000653  00000-0  52889-3 0  9997
2 12653  82.9380 165.7024 0031262 208.2333 276.4628 13.88511830249007
Epoch: 2026-03-12T23:53Z
TLE epoch observation values (Epoch: 2026-03-12T23:53:54.078Z)
Latitude
55.12671°
Longitude
166.40421°
Altitude
940.483 km
Speed
7.388 km/s
True Right ascension
22h 22m 04s
True Declination
54° 58' 09"
Sunlit
Object was in daylight at epoch
Visualization orbit readout
Latitude
Unknown
Longitude
Unknown
Altitude
Unknown
Speed
Unknown
Apparent Right ascension
Unknown
Apparent Declination
Unknown
Sunlit
N/A
Visualization observer readout
Local Sidereal Time
12:32:46
Azimuth
Unknown
Elevation
Unknown
Doppler factor
Unknown
Orbital elements
Apogee altitude
953.831 km
Perigee altitude
908.131 km
Semi-major axis
7,309.118 km
Eccentricity
0.00313
Inclination
82.938°
RAAN
165.7024°
Arg. of periapsis
208.2333°
True anomaly
276.10669°
Mean anomaly
276.4628°
Eccentric anomaly
276.28476°
Mean motion
3.47333 °/min
Orbital period
103.65 mins
BSTAR
0.00052889
Loading maneuver chart data...
Computing Atmospheric mass density...
Loading historical data...
Loading historical data...
Loading historical data...
Loading historical data...
Loading historical data...
Loading historical data...
Loading historical data...

Documentation

Showing up to 5 results
|